Location: Arlington
(31.4185°N, 90.5568°W)
Time: 12:02:49
(UTC+00:00)

ISS - Pass Details

Date: 04 October 2021
Orbit: 417 x 423 km, 51.6° (Epoch: 18 October)

Event Time Altitude Azimuth Distance (km) Brightness Sun altitude
Rises 00:31:54 0° 336° (NNW) 2,361 0.4 -11.0°
Reaches altitude 10° 00:35:46 10° 21° (NNE) 1,496 -1.1 -11.8°
Maximum altitude 00:36:19 10° 30° (NNE) 1,478 -1.3 -11.9°
Drops below altitude 10° 00:36:53 10° 40° (NE) 1,496 -1.3 -12.1°
Enters shadow 00:37:03 10° 43° (NE) 1,508 -1.3 -12.1°
